SL-16 DEB, 22337

Orbit data source: Space-Track

SL-16 DEB, 22337 is space debris in LEO originally from a launch on Fri, 25 Dec 1992 UTC launched from the Tyuratam Missile And Space Complex (TTMTR). Debris objects in space refer to the collection of defunct objects orbiting the Earth. Examples of debris include non-operational satellites, rocket bodies, and fragments generated from explosions, collisions, or faulty payload assembly.

Loading next visibility...
SL-16 DEB details
Identifier
22337, 1992-093AA
Orbit
LEO
Last TLE update13 hours ago
Origin
Flag of CISRVSN RF (CIS)
ManufacturerUnknown
MissionSpacecraft
Bus & MotorUnknown
MassUnknown
Launch date (UTC)
1992-12-25 (32 years ago)
Launch vehicleUnknown
Launch site
Tyuratam Missile And Space Complex (TTMTR)
Object type
Payload
Rocket body
Debris
Shape & HBRUnknown
Radar Cross SectionMedium (>0.1 m² and <1 m²)

Expand to show TLE details & history

TLE from 13 hours ago
0 SL-16 DEB
1 22337U 92093AA  24361.22803599  .00000210  00000-0  20651-3 0  9994
2 22337  71.2905 296.9729 0149212 334.8785  24.5113 13.84462231615185
Epoch: 2024-12-26T05:28Z
Definitive object data (Epoch: 2024-12-26T05:28:22.309Z)
Latitude-0.00006°
Longitude119.66948°
Altitude851.296 km
Speed7.477 km/s
True Right ascension19h 47m 53s
True Declination0° 00' 00"
Sunlit
Object was in daylight at TLE epoch
Visualization TLE readout
Latitude70.78536°
Longitude-166.18933°
Altitude997.652 km
Speed7.34 km/s
Apparent Right ascension03h 56m 40s
Apparent Declination24° 55' 39"
Sunlit
Object is in daylight
Visualization observer readout
Local Sidereal Time17:23:25
Azimuth21.199° NNE
Elevation-22.077°
Doppler factor1
Orbital elements
Apogee altitude1,055.314 km
Perigee altitude836.743 km
Semi-major axis7,324.166 km
Eccentricity0.0149212
Inclination71.2905°
RAAN296.9729°
Arg. of periapsis334.8785°
True anomaly25.23289°
Mean anomaly24.5113°
Eccentric anomaly24.87086°
Mean motion3.46263 °/min
BSTAR0.00020651
Orbital period103.97 mins
Loading maneuver chart data...
Loading historical data...
Loading historical data...
Loading historical data...
Loading historical data...
Loading historical data...
Loading historical data...
Loading historical data...

SL-16 DEB Visibility forecast

Observer location: undefined°, undefined

Span
Click to sort rows by Start time (UTC) header in descending order
Start Az.
Max El. time (UTC)
Max El. Az.
Max El.
End time (UTC)
End Az.
11 mins2024-12-26 21:10:59.576Z195.183° SSW2024-12-26 21:16:59.576Z70.896° E43.909°2024-12-26 21:21:59.576Z25.938° NE
6 mins2024-12-26 23:00:59.576Z279.276° WNW2024-12-26 23:03:59.576Z313.942° NW17.118°2024-12-26 23:06:59.576Z346.171° N
10 mins2024-12-27 06:18:59.576Z356.446° N2024-12-27 06:23:59.576Z70.729° E34.759°2024-12-27 06:28:59.576Z128.451° SE
10 mins2024-12-27 08:04:59.576Z313.225° NW2024-12-27 08:09:59.576Z253.955° W28.452°2024-12-27 08:14:59.576Z200.177° SSW
|